TimeCST,TemperatureF,Dew PointF,Humidity,Sea Level PressureIn,VisibilityMPH,Wind Direction,Wind SpeedMPH,Gust SpeedMPH,PrecipitationIn,Events,Conditions,WindDirDegrees,DateUTC
12:15 AM,30.2,30.2,100,30.36,10.0,Calm,Calm,-,N/A,,Clear,0,2012-11-28 06:15:00
12:35 AM,30.2,30.2,100,30.36,10.0,Calm,Calm,-,N/A,,Clear,0,2012-11-28 06:35:00
1:15 AM,30.2,30.2,100,30.36,10.0,Calm,Calm,-,N/A,,Clear,0,2012-11-28 07:15:00
1:35 AM,30.2,28.4,93,30.35,10.0,Calm,Calm,-,N/A,,Clear,0,2012-11-28 07:35:00
1:55 AM,30.2,28.4,93,30.35,10.0,Calm,Calm,-,N/A,,Clear,0,2012-11-28 07:55:00
2:15 AM,30.2,30.2,100,30.35,7.0,Calm,Calm,-,N/A,,Clear,0,2012-11-28 08:15:00
2:35 AM,28.4,28.4,100,30.35,7.0,Calm,Calm,-,N/A,,Clear,0,2012-11-28 08:35:00
2:55 AM,30.2,28.4,93,30.35,10.0,Calm,Calm,-,N/A,,Clear,0,2012-11-28 08:55:00
3:15 AM,28.4,28.4,100,30.36,7.0,Calm,Calm,-,N/A,,Clear,0,2012-11-28 09:15:00
3:35 AM,28.4,28.4,100,30.35,10.0,Calm,Calm,-,N/A,,Clear,0,2012-11-28 09:35:00
3:55 AM,28.4,28.4,100,30.35,7.0,Calm,Calm,-,N/A,,Clear,0,2012-11-28 09:55:00
4:15 AM,28.4,28.4,100,30.34,10.0,Calm,Calm,-,N/A,,Clear,0,2012-11-28 10:15:00
4:35 AM,28.4,26.6,93,30.34,10.0,Calm,Calm,-,N/A,,Clear,0,2012-11-28 10:35:00
4:55 AM,28.4,26.6,93,30.34,10.0,Calm,Calm,-,N/A,,Clear,0,2012-11-28 10:55:00
5:15 AM,28.4,28.4,100,30.35,10.0,Calm,Calm,-,N/A,,Clear,0,2012-11-28 11:15:00
5:35 AM,28.4,28.4,100,30.35,10.0,Calm,Calm,-,N/A,,Clear,0,2012-11-28 11:35:00
6:55 AM,26.6,26.6,100,30.38,10.0,Calm,Calm,-,N/A,,Clear,0,2012-11-28 12:55:00
7:55 AM,26.6,26.6,100,30.40,10.0,Calm,Calm,-,N/A,,Clear,0,2012-11-28 13:55:00
8:25 AM,26.6,26.6,100,30.40,0.5,Calm,Calm,-,N/A,Fog,Fog,0,2012-11-28 14:25:00
8:55 AM,37.4,35.6,93,30.41,7.0,Calm,Calm,-,N/A,,Scattered Clouds,0,2012-11-28 14:55:00
9:55 AM,46.4,37.4,71,30.42,10.0,SE,8.1,-,N/A,,Clear,140,2012-11-28 15:55:00
10:55 AM,53.6,41.0,62,30.41,10.0,SE,5.8,-,N/A,,Clear,130,2012-11-28 16:55:00
11:55 AM,59.0,41.0,51,30.37,10.0,SSE,10.4,-,N/A,,Clear,150,2012-11-28 17:55:00
12:55 PM,60.8,41.0,48,30.34,10.0,SE,16.1,20.7,N/A,,Clear,140,2012-11-28 18:55:00
1:55 PM,64.4,41.0,42,30.30,10.0,SE,12.7,17.3,N/A,,Clear,140,2012-11-28 19:55:00
10:35 PM,46.4,35.6,66,30.25,10.0,ESE,6.9,-,N/A,,Clear,110,2012-11-29 04:35:00
10:55 PM,46.4,35.6,66,30.25,10.0,East,6.9,-,N/A,,Clear,100,2012-11-29 04:55:00
11:15 PM,44.6,35.6,71,30.25,10.0,East,6.9,-,N/A,,Clear,100,2012-11-29 05:15:00
11:35 PM,44.6,35.6,71,30.24,10.0,ESE,6.9,-,N/A,,Clear,110,2012-11-29 05:35:00
11:55 PM,44.6,35.6,71,30.24,10.0,ESE,6.9,-,N/A,,Clear,110,2012-11-29 05:55:00